TOM77X EGKK-LIPX

Flight info

Callsign TOM77X
Flight time 1h 34m
Altitude 37000
Route ODVIK Y311 DVR UL9 KONAN DCT KOK DCT RITAX DCT KRH DCT BATUB M738 TIRUL Y740 NATAG DCT LORLO/N0393F190 Q49 MOVOR T897 ANJAT
Aircraft B738/M-SDE2E3FGHIRWXY/LB1

Departure

Time 2026-05-05 15:48
Airport London Gatwick Airport (EGKK)

Arrival

Time 2026-05-05 17:22
Airport Verona Villafranca Valerio Catullo Airport (LIPX)
Time Latitude Longitude Altitude Speed Heading
2026-05-05 15:21 51.16062 -0.18026 142 ft 0 kts 77°
2026-05-05 15:35 51.16062 -0.18028 202 ft 2 kts 77°
2026-05-05 15:35 51.16057 -0.18067 214 ft 4 kts 79°
2026-05-05 15:35 51.16053 -0.18109 212 ft 4 kts 91°
2026-05-05 15:36 51.16058 -0.18147 211 ft 4 kts 136°
2026-05-05 15:36 51.16066 -0.18155 213 ft 1 kts 170°
2026-05-05 15:38 51.16065 -0.18155 213 ft 1 kts 170°
2026-05-05 15:39 51.16046 -0.18151 204 ft 5 kts 173°
2026-05-05 15:39 51.15996 -0.18134 206 ft 11 kts 165°
2026-05-05 15:39 51.15899 -0.18099 202 ft 18 kts 167°
2026-05-05 15:39 51.15764 -0.18055 202 ft 22 kts 170°
2026-05-05 15:40 51.15676 -0.18115 212 ft 14 kts 253°
2026-05-05 15:40 51.15655 -0.18291 205 ft 17 kts 255°
2026-05-05 15:40 51.15627 -0.18488 207 ft 19 kts 262°
2026-05-05 15:40 51.15597 -0.18703 209 ft 20 kts 257°
2026-05-05 15:41 51.15509 -0.18820 202 ft 18 kts 167°
2026-05-05 15:41 51.15427 -0.18787 202 ft 18 kts 166°
2026-05-05 15:41 51.15299 -0.18742 202 ft 19 kts 164°
2026-05-05 15:41 51.15170 -0.18701 206 ft 19 kts 186°
2026-05-05 15:42 51.15115 -0.18832 206 ft 15 kts 257°
2026-05-05 15:42 51.15092 -0.18997 207 ft 16 kts 256°
2026-05-05 15:42 51.15065 -0.19199 203 ft 17 kts 259°
2026-05-05 15:42 51.15042 -0.19375 212 ft 18 kts 258°
2026-05-05 15:43 51.15021 -0.19586 207 ft 20 kts 256°
2026-05-05 15:43 51.14983 -0.19799 209 ft 21 kts 257°
2026-05-05 15:43 51.14950 -0.20034 205 ft 23 kts 257°
2026-05-05 15:43 51.14916 -0.20286 202 ft 24 kts 258°
2026-05-05 15:44 51.14878 -0.20557 206 ft 25 kts 258°
2026-05-05 15:44 51.14840 -0.20837 213 ft 26 kts 257°
2026-05-05 15:44 51.14811 -0.21044 213 ft 16 kts 257°
2026-05-05 15:44 51.14783 -0.21198 207 ft 15 kts 254°
2026-05-05 15:45 51.14761 -0.21360 203 ft 14 kts 255°
2026-05-05 15:45 51.14721 -0.21410 207 ft 6 kts 185°
2026-05-05 15:45 51.14683 -0.21389 203 ft 6 kts 140°
2026-05-05 15:45 51.14647 -0.21348 207 ft 8 kts 158°
2026-05-05 15:46 51.14615 -0.21330 211 ft 0 kts 163°
2026-05-05 15:46 51.14611 -0.21328 203 ft 4 kts 164°
2026-05-05 15:46 51.14539 -0.21273 202 ft 19 kts 136°
2026-05-05 15:46 51.14520 -0.21140 202 ft 0 kts 82°
2026-05-05 15:47 51.14552 -0.20922 203 ft 56 kts 76°
2026-05-05 15:47 51.14693 -0.19908 206 ft 129 kts 77°
2026-05-05 15:48 51.14922 -0.18249 432 ft 169 kts 79°
2026-05-05 15:48 51.15071 -0.16256 1265 ft 177 kts 84°
2026-05-05 15:48 51.15333 -0.14424 2530 ft 171 kts 73°
2026-05-05 15:48 51.15658 -0.12450 3140 ft 197 kts 75°
2026-05-05 15:49 51.16003 -0.10147 3427 ft 225 kts 75°
2026-05-05 15:49 51.16370 -0.07566 3864 ft 252 kts 76°
2026-05-05 15:49 51.16626 -0.05711 4476 ft 255 kts 76°
2026-05-05 15:49 51.16966 -0.01812 5601 ft 263 kts 88°
2026-05-05 15:50 51.16904 0.01128 6079 ft 269 kts 91°
2026-05-05 15:50 51.16801 0.04121 6923 ft 275 kts 91°
2026-05-05 15:50 51.16714 0.07202 7879 ft 277 kts 91°
2026-05-05 15:50 51.16643 0.10302 8810 ft 282 kts 91°
2026-05-05 15:51 51.16578 0.13453 9704 ft 287 kts 91°
2026-05-05 15:51 51.16529 0.16677 10550 ft 297 kts 90°
2026-05-05 15:51 51.16534 0.20116 10800 ft 324 kts 89°
2026-05-05 15:51 51.16553 0.23830 11009 ft 348 kts 89°
2026-05-05 15:52 51.16568 0.28037 11498 ft 364 kts 89°
2026-05-05 15:52 51.16573 0.31959 12247 ft 368 kts 90°
2026-05-05 15:52 51.16580 0.36034 13144 ft 368 kts 90°
2026-05-05 15:52 51.16586 0.40190 14011 ft 372 kts 90°
2026-05-05 15:53 51.16587 0.44445 14269 ft 390 kts 90°
2026-05-05 15:53 51.16587 0.48875 14571 ft 403 kts 90°
2026-05-05 15:53 51.16584 0.53326 15113 ft 409 kts 90°
2026-05-05 15:53 51.16579 0.56355 15539 ft 411 kts 90°
2026-05-05 15:54 51.16571 0.61164 16162 ft 414 kts 90°
2026-05-05 15:54 51.16564 0.65599 16699 ft 419 kts 90°
2026-05-05 15:54 51.16555 0.70280 17235 ft 423 kts 90°
2026-05-05 15:54 51.16546 0.75034 17778 ft 427 kts 90°
2026-05-05 15:55 51.16536 0.79954 18241 ft 431 kts 90°
2026-05-05 15:55 51.16524 0.84762 18722 ft 434 kts 90°
2026-05-05 15:55 51.16511 0.89526 19199 ft 437 kts 90°
2026-05-05 15:55 51.16495 0.94483 19676 ft 440 kts 91°
2026-05-05 15:56 51.16477 0.99426 20125 ft 444 kts 91°
2026-05-05 15:56 51.16457 1.04433 20556 ft 448 kts 91°
2026-05-05 15:56 51.16435 1.09411 20961 ft 451 kts 91°
2026-05-05 15:56 51.16412 1.14455 21370 ft 455 kts 91°
2026-05-05 15:57 51.16387 1.19525 21777 ft 458 kts 91°
2026-05-05 15:57 51.16361 1.24569 22164 ft 461 kts 91°
2026-05-05 15:57 51.16331 1.29758 22558 ft 464 kts 92°
2026-05-05 15:57 51.16295 1.34915 22934 ft 467 kts 92°
2026-05-05 15:58 51.16176 1.40123 23316 ft 470 kts 95°
2026-05-05 15:58 51.15938 1.45299 23648 ft 472 kts 96°
2026-05-05 15:58 51.15652 1.50506 23983 ft 474 kts 97°
2026-05-05 15:58 51.15359 1.55735 24335 ft 474 kts 97°
2026-05-05 15:59 51.15068 1.61099 24686 ft 476 kts 97°
2026-05-05 15:59 51.14797 1.66302 24986 ft 478 kts 96°
2026-05-05 15:59 51.14530 1.71608 25358 ft 478 kts 97°
2026-05-05 15:59 51.14270 1.76835 25814 ft 476 kts 97°
2026-05-05 16:00 51.14005 1.82151 26319 ft 473 kts 97°
2026-05-05 16:00 51.13741 1.87397 26798 ft 471 kts 97°
2026-05-05 16:00 51.13476 1.92605 27232 ft 470 kts 97°
2026-05-05 16:00 51.13209 1.97746 27661 ft 469 kts 97°
2026-05-05 16:01 51.12936 2.02928 28123 ft 468 kts 97°
2026-05-05 16:01 51.12659 2.08064 28606 ft 466 kts 97°
2026-05-05 16:01 51.12377 2.13242 29069 ft 465 kts 97°
2026-05-05 16:01 51.12087 2.18568 29521 ft 464 kts 97°
2026-05-05 16:02 51.11821 2.23459 29956 ft 462 kts 97°
2026-05-05 16:02 51.11547 2.28510 30361 ft 461 kts 97°
2026-05-05 16:02 51.11267 2.33622 30742 ft 460 kts 98°
2026-05-05 16:02 51.10990 2.38652 31094 ft 459 kts 98°
2026-05-05 16:03 51.10709 2.43733 31466 ft 458 kts 98°
2026-05-05 16:03 51.10423 2.48872 31859 ft 456 kts 98°
2026-05-05 16:03 51.10143 2.53858 32237 ft 455 kts 98°
2026-05-05 16:03 51.09856 2.58855 32598 ft 454 kts 98°
2026-05-05 16:04 51.09413 2.63837 32961 ft 450 kts 106°
2026-05-05 16:04 51.08537 2.68581 33273 ft 447 kts 115°
2026-05-05 16:04 51.07221 2.73119 33665 ft 443 kts 119°
2026-05-05 16:04 51.05865 2.77478 34014 ft 441 kts 119°
2026-05-05 16:05 51.04453 2.81970 34267 ft 442 kts 119°
2026-05-05 16:05 51.03105 2.86273 34433 ft 444 kts 119°
2026-05-05 16:05 51.01722 2.90719 34644 ft 445 kts 119°
2026-05-05 16:05 51.00362 2.95120 34886 ft 445 kts 119°
2026-05-05 16:06 50.98996 2.99561 35115 ft 445 kts 119°
2026-05-05 16:06 50.97631 3.04004 35317 ft 446 kts 119°
2026-05-05 16:06 50.96269 3.08439 35510 ft 447 kts 119°
2026-05-05 16:06 50.94904 3.12878 35745 ft 447 kts 119°
2026-05-05 16:07 50.93554 3.17259 35947 ft 447 kts 119°
2026-05-05 16:07 50.92170 3.21740 36127 ft 449 kts 119°
2026-05-05 16:07 50.90786 3.26215 36328 ft 449 kts 119°
2026-05-05 16:07 50.89414 3.30641 36532 ft 449 kts 119°
2026-05-05 16:08 50.88015 3.35145 36724 ft 450 kts 119°
2026-05-05 16:08 50.86626 3.39610 36900 ft 451 kts 119°
2026-05-05 16:08 50.85707 3.42558 37033 ft 452 kts 119°
2026-05-05 16:08 50.84313 3.47027 37222 ft 452 kts 119°
2026-05-05 16:09 50.82904 3.51533 37402 ft 453 kts 119°
2026-05-05 16:09 50.81518 3.55958 37571 ft 454 kts 119°
2026-05-05 16:09 50.80098 3.60484 37753 ft 454 kts 119°
2026-05-05 16:09 50.78684 3.64981 37933 ft 455 kts 119°
2026-05-05 16:10 50.77290 3.69407 38075 ft 456 kts 119°
2026-05-05 16:10 50.75875 3.73890 38272 ft 456 kts 119°
2026-05-05 16:10 50.74460 3.78367 38455 ft 456 kts 119°
2026-05-05 16:10 50.73022 3.82910 38621 ft 456 kts 119°
2026-05-05 16:11 50.71607 3.87370 38746 ft 456 kts 119°
2026-05-05 16:11 50.67304 4.00881 38863 ft 458 kts 120°
2026-05-05 16:12 50.65874 4.05355 38859 ft 456 kts 120°
2026-05-05 16:13 50.58736 4.27575 38851 ft 449 kts 120°
2026-05-05 16:13 50.55910 4.36315 38861 ft 447 kts 120°
2026-05-05 16:14 50.50204 4.53864 38864 ft 452 kts 120°
2026-05-05 16:15 50.44441 4.71472 38857 ft 454 kts 120°
2026-05-05 16:16 50.38638 4.89075 38855 ft 455 kts 120°
2026-05-05 16:17 50.34258 5.02281 38849 ft 455 kts 121°
2026-05-05 16:18 50.29837 5.15542 38847 ft 456 kts 121°
2026-05-05 16:19 50.25419 5.28728 38838 ft 455 kts 121°
2026-05-05 16:19 50.20998 5.41854 38840 ft 455 kts 121°
2026-05-05 16:20 50.15069 5.59356 38812 ft 456 kts 121°
2026-05-05 16:22 50.10202 5.73656 38811 ft 453 kts 121°
2026-05-05 16:23 50.04091 5.90854 38808 ft 450 kts 124°
2026-05-05 16:23 49.99314 6.03462 38813 ft 450 kts 123°
2026-05-05 16:24 49.96155 6.11851 38813 ft 450 kts 123°
2026-05-05 16:25 49.91397 6.24511 38804 ft 451 kts 123°
2026-05-05 16:25 49.86645 6.37102 38809 ft 453 kts 124°
2026-05-05 16:26 49.80232 6.53993 38811 ft 455 kts 124°
2026-05-05 16:27 49.77000 6.62464 38802 ft 456 kts 124°
2026-05-05 16:27 49.73780 6.70875 38806 ft 456 kts 124°
2026-05-05 16:28 49.70528 6.79346 38803 ft 457 kts 124°
2026-05-05 16:28 49.67276 6.87787 38805 ft 457 kts 124°
2026-05-05 16:29 49.64021 6.96208 38809 ft 457 kts 124°
2026-05-05 16:29 49.61301 7.03227 38816 ft 457 kts 124°
2026-05-05 16:30 49.58037 7.11624 38820 ft 456 kts 124°
2026-05-05 16:30 49.54689 7.20208 38819 ft 456 kts 124°
2026-05-05 16:31 49.51399 7.28617 38817 ft 455 kts 125°
2026-05-05 16:31 49.48077 7.37080 38813 ft 454 kts 125°
2026-05-05 16:32 49.44774 7.45469 38808 ft 454 kts 125°
2026-05-05 16:32 49.41509 7.53734 38813 ft 454 kts 125°
2026-05-05 16:33 49.38223 7.62026 38811 ft 453 kts 125°
2026-05-05 16:33 49.34910 7.70360 38817 ft 453 kts 125°
2026-05-05 16:34 49.31642 7.78556 38809 ft 453 kts 125°
2026-05-05 16:34 49.28274 7.86977 38827 ft 454 kts 126°
2026-05-05 16:35 49.24966 7.95220 38820 ft 454 kts 126°
2026-05-05 16:35 49.21648 8.03467 38825 ft 455 kts 126°
2026-05-05 16:36 49.18296 8.11770 38817 ft 455 kts 126°
2026-05-05 16:36 49.14963 8.20003 38826 ft 455 kts 126°
2026-05-05 16:37 49.11606 8.28271 38821 ft 455 kts 126°
2026-05-05 16:37 49.08259 8.36490 38826 ft 455 kts 126°
2026-05-05 16:38 49.04902 8.44721 38827 ft 455 kts 126°
2026-05-05 16:38 49.01519 8.52977 38829 ft 455 kts 126°
2026-05-05 16:39 48.97460 8.60259 38835 ft 446 kts 144°
2026-05-05 16:39 48.92409 8.65639 38834 ft 442 kts 150°
2026-05-05 16:40 48.87285 8.70755 38825 ft 442 kts 150°
2026-05-05 16:40 48.82984 8.75091 38825 ft 442 kts 150°
2026-05-05 16:41 48.77844 8.80317 38825 ft 442 kts 150°
2026-05-05 16:41 48.72761 8.85494 38833 ft 442 kts 150°
2026-05-05 16:42 48.67650 8.90689 38824 ft 442 kts 150°
2026-05-05 16:42 48.62541 8.95868 38830 ft 442 kts 150°
2026-05-05 16:43 48.57400 9.01064 38831 ft 442 kts 150°
2026-05-05 16:43 48.52221 9.06286 38828 ft 442 kts 150°
2026-05-05 16:44 48.47016 9.11521 38826 ft 442 kts 150°
2026-05-05 16:44 48.41838 9.16717 38830 ft 442 kts 150°
2026-05-05 16:45 48.36764 9.21796 38825 ft 441 kts 150°
2026-05-05 16:45 48.31630 9.26923 38828 ft 441 kts 150°
2026-05-05 16:46 48.26467 9.32065 38823 ft 442 kts 150°
2026-05-05 16:46 48.21269 9.37231 38824 ft 442 kts 150°
2026-05-05 16:47 48.16114 9.42344 38825 ft 443 kts 150°
2026-05-05 16:47 48.10974 9.47430 38826 ft 443 kts 150°
2026-05-05 16:48 48.05841 9.52504 38830 ft 443 kts 150°
2026-05-05 16:48 48.00692 9.57600 38826 ft 444 kts 149°
2026-05-05 16:49 47.95651 9.62991 38839 ft 446 kts 148°
2026-05-05 16:49 47.90636 9.68480 38844 ft 446 kts 148°
2026-05-05 16:50 47.89626 9.69581 38844 ft 446 kts 148°
2026-05-05 16:50 47.84595 9.75029 38853 ft 447 kts 148°
2026-05-05 16:51 47.79520 9.80485 38838 ft 447 kts 148°
2026-05-05 16:51 47.74467 9.85897 38834 ft 448 kts 148°
2026-05-05 16:52 47.69409 9.91303 38851 ft 449 kts 148°
2026-05-05 16:52 47.64327 9.96722 38848 ft 449 kts 148°
2026-05-05 16:53 47.59197 10.02181 38847 ft 450 kts 148°
2026-05-05 16:53 47.54123 10.07569 38854 ft 450 kts 148°
2026-05-05 16:54 47.49029 10.12971 38844 ft 451 kts 148°
2026-05-05 16:54 47.44562 10.17688 38853 ft 451 kts 149°
2026-05-05 16:55 47.39315 10.22676 38856 ft 449 kts 153°
2026-05-05 16:55 47.33867 10.27539 38852 ft 450 kts 153°
2026-05-05 16:56 47.28410 10.32484 38855 ft 450 kts 153°
2026-05-05 16:56 47.23944 10.36503 38863 ft 449 kts 153°
2026-05-05 16:57 47.18147 10.41717 38864 ft 450 kts 153°
2026-05-05 16:57 47.12002 10.47242 38868 ft 452 kts 153°
2026-05-05 16:58 47.07446 10.51103 38865 ft 449 kts 161°
2026-05-05 16:58 47.01423 10.53283 38870 ft 439 kts 180°
2026-05-05 16:59 46.95316 10.53300 38884 ft 437 kts 185°
2026-05-05 16:59 46.92223 10.53226 38592 ft 443 kts 185°
2026-05-05 16:59 46.89113 10.53157 38012 ft 444 kts 184°
2026-05-05 17:00 46.86042 10.53106 37412 ft 441 kts 184°
2026-05-05 17:00 46.82977 10.53069 36805 ft 440 kts 184°
2026-05-05 17:00 46.79868 10.53040 36178 ft 439 kts 184°
2026-05-05 17:00 46.76816 10.53016 35546 ft 439 kts 183°
2026-05-05 17:01 46.73756 10.52994 34863 ft 440 kts 183°
2026-05-05 17:01 46.70694 10.52974 34189 ft 441 kts 183°
2026-05-05 17:01 46.67417 10.52952 33368 ft 443 kts 183°
2026-05-05 17:01 46.64479 10.52932 32613 ft 444 kts 183°
2026-05-05 17:02 46.61318 10.52909 31796 ft 445 kts 183°
2026-05-05 17:02 46.58192 10.52887 31007 ft 445 kts 182°
2026-05-05 17:02 46.55111 10.52866 30218 ft 446 kts 182°
2026-05-05 17:02 46.51982 10.52844 29263 ft 448 kts 182°
2026-05-05 17:03 46.48560 10.52819 28231 ft 449 kts 182°
2026-05-05 17:03 46.45334 10.52799 27584 ft 442 kts 182°
2026-05-05 17:03 46.42310 10.52780 26920 ft 438 kts 182°
2026-05-05 17:03 46.39274 10.52760 26270 ft 433 kts 182°
2026-05-05 17:04 46.36270 10.52741 25624 ft 429 kts 183°
2026-05-05 17:04 46.33235 10.52722 24959 ft 426 kts 182°
2026-05-05 17:04 46.31275 10.52708 24553 ft 423 kts 182°
2026-05-05 17:04 46.28252 10.52687 23909 ft 420 kts 182°
2026-05-05 17:05 46.25306 10.52667 23201 ft 418 kts 182°
2026-05-05 17:05 46.22383 10.52647 22499 ft 415 kts 182°
2026-05-05 17:05 46.19458 10.52627 21831 ft 411 kts 182°
2026-05-05 17:05 46.16628 10.52608 21204 ft 407 kts 182°
2026-05-05 17:06 46.13775 10.52590 20572 ft 403 kts 182°
2026-05-05 17:06 46.10979 10.52572 19965 ft 399 kts 182°
2026-05-05 17:06 46.08217 10.52554 19361 ft 396 kts 182°
2026-05-05 17:06 46.05467 10.52535 18751 ft 393 kts 183°
2026-05-05 17:07 46.02711 10.52517 18097 ft 391 kts 183°
2026-05-05 17:07 46.00009 10.52498 17434 ft 389 kts 182°
2026-05-05 17:07 45.97236 10.52480 16773 ft 385 kts 182°
2026-05-05 17:07 45.94504 10.52461 16129 ft 380 kts 182°
2026-05-05 17:08 45.91841 10.52444 15582 ft 373 kts 182°
2026-05-05 17:08 45.89211 10.52427 14990 ft 370 kts 182°
2026-05-05 17:08 45.86558 10.52410 14387 ft 366 kts 182°
2026-05-05 17:08 45.84002 10.52394 13825 ft 363 kts 182°
2026-05-05 17:09 45.81330 10.52376 13155 ft 359 kts 182°
2026-05-05 17:09 45.79171 10.52362 12630 ft 356 kts 181°
2026-05-05 17:09 45.77008 10.52347 12139 ft 353 kts 181°
2026-05-05 17:09 45.74533 10.52331 11552 ft 350 kts 181°
2026-05-05 17:10 45.72101 10.52316 10994 ft 346 kts 181°
2026-05-05 17:10 45.69742 10.52302 10853 ft 332 kts 181°
2026-05-05 17:10 45.67433 10.52288 10672 ft 320 kts 181°
2026-05-05 17:10 45.65019 10.52274 10526 ft 307 kts 181°
2026-05-05 17:11 45.62998 10.52263 10404 ft 297 kts 181°
2026-05-05 17:11 45.60820 10.52250 10266 ft 287 kts 181°
2026-05-05 17:11 45.58817 10.52238 10123 ft 278 kts 181°
2026-05-05 17:11 45.56910 10.52227 10020 ft 269 kts 181°
2026-05-05 17:12 45.55016 10.52216 9796 ft 265 kts 181°
2026-05-05 17:12 45.53198 10.52205 9507 ft 263 kts 181°
2026-05-05 17:12 45.51367 10.52194 9207 ft 261 kts 181°
2026-05-05 17:12 45.49494 10.52183 8908 ft 259 kts 181°
2026-05-05 17:13 45.48590 10.52177 8759 ft 259 kts 181°
2026-05-05 17:13 45.46655 10.52166 8466 ft 257 kts 181°
2026-05-05 17:13 45.44823 10.52154 8167 ft 257 kts 181°
2026-05-05 17:13 45.42739 10.52142 7836 ft 258 kts 181°
2026-05-05 17:14 45.41121 10.52132 7569 ft 257 kts 181°
2026-05-05 17:14 45.39310 10.52122 7284 ft 256 kts 181°
2026-05-05 17:14 45.37601 10.52113 7015 ft 255 kts 181°
2026-05-05 17:14 45.35927 10.52104 6766 ft 253 kts 181°
2026-05-05 17:15 45.34148 10.52095 6512 ft 252 kts 181°
2026-05-05 17:15 45.32387 10.52085 6394 ft 242 kts 181°
2026-05-05 17:15 45.30714 10.52075 6278 ft 235 kts 181°
2026-05-05 17:15 45.29048 10.52073 5692 ft 248 kts 177°
2026-05-05 17:16 45.27459 10.52917 5510 ft 242 kts 142°
2026-05-05 17:16 45.26675 10.54225 5318 ft 238 kts 122°
2026-05-05 17:16 45.26016 10.56774 5076 ft 230 kts 105°
2026-05-05 17:16 45.25663 10.59140 4764 ft 230 kts 104°
2026-05-05 17:17 45.25334 10.61394 4493 ft 230 kts 104°
2026-05-05 17:17 45.24996 10.63641 4280 ft 224 kts 104°
2026-05-05 17:17 45.24797 10.65820 4091 ft 216 kts 83°
2026-05-05 17:17 45.25075 10.66964 4028 ft 213 kts 60°
2026-05-05 17:18 45.26098 10.68903 3737 ft 218 kts 53°
2026-05-05 17:18 45.27079 10.70567 3440 ft 218 kts 48°
2026-05-05 17:18 45.28115 10.72128 3149 ft 209 kts 46°
2026-05-05 17:18 45.29150 10.73639 2857 ft 195 kts 46°
2026-05-05 17:19 45.30044 10.74944 2633 ft 181 kts 45°
2026-05-05 17:19 45.30868 10.76148 2390 ft 164 kts 45°
2026-05-05 17:19 45.31631 10.77263 2171 ft 151 kts 45°
2026-05-05 17:19 45.32420 10.78415 1969 ft 147 kts 45°
2026-05-05 17:20 45.33090 10.79393 1803 ft 150 kts 45°
2026-05-05 17:20 45.33831 10.80477 1594 ft 150 kts 45°
2026-05-05 17:20 45.34541 10.81515 1394 ft 148 kts 45°
2026-05-05 17:20 45.35276 10.82588 1195 ft 148 kts 45°
2026-05-05 17:21 45.36004 10.83637 1007 ft 145 kts 46°
2026-05-05 17:21 45.36697 10.84671 801 ft 142 kts 48°
2026-05-05 17:21 45.37380 10.85706 638 ft 138 kts 47°
2026-05-05 17:22 45.38746 10.87660 298 ft 137 kts 48°
2026-05-05 17:22 45.39408 10.88616 237 ft 122 kts 47°
2026-05-05 17:22 45.39753 10.89125 239 ft 94 kts 45°
2026-05-05 17:22 45.40129 10.89686 245 ft 29 kts 53°
2026-05-05 17:23 45.40218 10.89815 245 ft 28 kts 45°
2026-05-05 17:23 45.40295 10.90062 243 ft 26 kts 81°
2026-05-05 17:23 45.40328 10.90238 242 ft 14 kts 73°
2026-05-05 17:23 45.40348 10.90365 241 ft 10 kts 91°
2026-05-05 17:24 45.40308 10.90440 241 ft 9 kts 140°
2026-05-05 17:24 45.40264 10.90487 241 ft 0 kts 142°
2026-05-05 17:24 45.40261 10.90491 241 ft 2 kts 137°
2026-05-05 17:25 45.40244 10.90514 241 ft 4 kts 136°
2026-05-05 17:25 45.40240 10.90520 241 ft 0 kts 135°